Precipitable_Water
0.72 0.78 0.81 0.91 0.89 0.89 1.02 1.12 0.99 1.06 1.09 0.95 0.91 0.89 0.88 0.93 0.91 0.93 0.93 0.94 0.93 0.86 0.83 0.82 0.86 0.85 0.80 0.77 0.77 0.74 0.63 0.59
0.82 0.90 0.94 0.90 0.94 0.91 0.95 0.97 1.05 1.05 0.99 0.82 0.81 0.80 0.85 0.88 0.89 0.88 0.88 0.89 0.86 0.84 0.81 0.81 0.77 0.73 0.72 0.68 0.62 0.56 0.56 0.59
0.74 0.80 0.86 0.91 0.91 0.94 0.94 0.95 0.90 0.86 0.84 0.84 0.84 0.84 0.83 0.83 0.87 0.86 0.87 0.86 0.87 0.87 0.83 0.75 0.73 0.69 0.63 0.61 0.62 0.57 0.53 0.53
0.67 0.77 0.83 0.84 0.81 0.80 0.80 0.81 0.82 0.85 0.85 0.86 0.84 0.82 0.79 0.77 0.81 0.87 0.87 0.88 0.87 0.76 0.69 0.66 0.64 0.60 0.55 0.51 0.51 0.49 0.47 0.49
0.61 0.68 0.70 0.69 0.71 0.77 0.80 0.81 0.80 0.83 0.83 0.79 0.75 0.73 0.73 0.82 0.84 0.81 0.77 0.73 0.67 0.64 0.62 0.60 0.57 0.57 0.52 0.52 0.54 0.52 0.50 0.44
0.64 0.67 0.71 0.75 0.78 0.79 0.81 0.82 0.82 0.81 0.79 0.78 0.79 0.80 0.82 0.78 0.71 0.67 0.65 0.66 0.64 0.61 0.57 0.56 0.56 0.53 0.52 0.53 0.53 0.52 0.52 0.51
0.64 0.69 0.74 0.77 0.82 0.83 0.83 0.78 0.75 0.78 0.81 0.83 0.79 0.70 0.65 0.64 0.66 0.65 0.63 0.63 0.60 0.58 0.58 0.55 0.55 0.55 0.53 0.56 0.58 0.57 0.54 0.52
0.66 0.70 0.74 0.78 0.79 0.80 0.79 0.79 0.77 0.78 0.77 0.75 0.73 0.72 0.70 0.68 0.67 0.65 0.62 0.57 0.59 0.55 0.55 0.53 0.53 0.54 0.54 0.52 0.50 0.53 0.50 0.46
0.66 0.68 0.70 0.72 0.73 0.72 0.75 0.74 0.73 0.74 0.75 0.75 0.75 0.72 0.70 0.68 0.68 0.65 0.60 0.56 0.55 0.55 0.53 0.49 0.48 0.47 0.47 0.45 0.45 0.46 0.48 0.46
0.64 0.70 0.73 0.74 0.74 0.73 0.71 0.71 0.72 0.74 0.75 0.73 0.69 0.68 0.67 0.68 0.63 0.59 0.57 0.58 0.53 0.48 0.46 0.42 0.45 0.44 0.44 0.46 0.46 0.46 0.46 0.47
0.71 0.73 0.71 0.73 0.73 0.73 0.75 0.75 0.72 0.74 0.72 0.68 0.66 0.67 0.65 0.61 0.58 0.54 0.52 0.47 0.41 0.38 0.40 0.40 0.42 0.43 0.45 0.46 0.45 0.46 0.45 0.45
0.69 0.71 0.70 0.71 0.72 0.70 0.72 0.70 0.70 0.70 0.68 0.67 0.65 0.60 0.57 0.55 0.51 0.46 0.41 0.38 0.33 0.33 0.34 0.36 0.38 0.40 0.43 0.41 0.41 0.42 0.41 0.39
0.64 0.67 0.67 0.67 0.68 0.69 0.68 0.68 0.68 0.67 0.66 0.62 0.56 0.54 0.51 0.46 0.42 0.39 0.35 0.33 0.35 0.36 0.36 0.35 0.35 0.35 0.34 0.35 0.34 0.35 0.33 0.35
0.62 0.62 0.62 0.61 0.61 0.61 0.58 0.59 0.60 0.60 0.60 0.56 0.50 0.47 0.43 0.40 0.36 0.36 0.34 0.32 0.33 0.32 0.30 0.27 0.25 0.24 0.24 0.24 0.25 0.26 0.26 0.26
0.61 0.61 0.59 0.57 0.54 0.51 0.51 0.51 0.55 0.56 0.54 0.51 0.46 0.45 0.40 0.35 0.34 0.32 0.31 0.31 0.28 0.27 0.26 0.26 0.25 0.25 0.25 0.26 0.26 0.25 0.24 0.22
0.60 0.57 0.54 0.51 0.47 0.45 0.43 0.44 0.46 0.52 0.54 0.52 0.44 0.41 0.39 0.35 0.34 0.32 0.31 0.28 0.26 0.26 0.25 0.25 0.25 0.25 0.26 0.26 0.24 0.24 0.24 0.23
0.54 0.51 0.47 0.46 0.43 0.39 0.36 0.36 0.40 0.48 0.45 0.42 0.43 0.47 0.45 0.42 0.40 0.35 0.31 0.28 0.27 0.27 0.26 0.25 0.24 0.26 0.28 0.27 0.26 0.26 0.25 0.24
0.46 0.45 0.44 0.40 0.35 0.31 0.31 0.32 0.32 0.37 0.38 0.40 0.43 0.49 0.47 0.45 0.39 0.33 0.32 0.29 0.27 0.27 0.25 0.26 0.26 0.27 0.28 0.28 0.27 0.26 0.25 0.23
0.44 0.38 0.36 0.36 0.34 0.32 0.29 0.27 0.26 0.27 0.31 0.38 0.46 0.44 0.41 0.40 0.33 0.35 0.34 0.30 0.28 0.25 0.27 0.28 0.28 0.27 0.27 0.26 0.26 0.26 0.24 0.22
Wind_Speed
11 11 10 10 15 16 17 18 20 19 19 19 22 24 25 26 26 28 29 30 30 32 35 36 38 39 39 39 39 40 41 42
6 8 11 14 16 18 17 18 17 17 21 23 23 25 28 28 29 29 31 32 34 37 39 39 41 41 41 42 43 43 44 43
8 12 14 14 14 15 17 18 19 22 24 25 26 29 29 29 29 31 34 36 39 44 44 43 42 42 43 44 44 45 46 46
11 13 14 15 16 17 18 19 21 23 25 27 28 29 30 31 34 39 42 46 48 42 42 42 44 44 45 47 48 48 48 49
10 11 13 14 15 17 19 22 23 25 27 29 31 32 35 39 42 43 43 42 41 41 43 45 46 47 48 49 49 50 51 51
13 14 14 15 17 19 22 24 26 28 29 30 33 36 39 40 39 40 40 40 42 44 46 48 49 50 51 50 51 50 50 50
14 15 16 17 19 21 24 26 28 30 32 33 36 37 37 38 40 41 43 45 47 48 50 51 51 50 51 51 50 50 50 49
14 14 17 20 22 23 25 27 30 32 34 36 36 37 39 41 43 44 47 49 49 50 50 51 51 52 51 51 51 50 50 49
15 18 20 22 24 25 27 29 31 33 34 36 38 40 43 44 46 47 49 49 50 49 49 51 50 51 51 52 51 50 49 49
16 18 19 21 23 27 30 31 32 34 35 37 41 44 46 47 48 48 49 48 49 51 52 52 52 52 52 51 50 50 50 48
18 20 23 25 27 29 31 33 36 37 40 43 45 48 48 47 47 48 48 49 50 50 50 51 52 51 51 50 49 47 44 41
19 21 23 25 30 34 34 38 40 42 45 47 48 47 47 47 47 47 48 50 50 50 51 52 51 49 47 44 42 39 37 36
21 23 27 31 35 38 40 42 45 46 48 46 47 47 48 48 48 48 49 49 49 50 51 50 48 45 42 40 38 36 36 35
24 27 31 35 39 42 45 46 46 46 48 48 47 48 48 48 48 48 48 49 50 50 49 46 43 40 37 35 34 33 33 34
28 32 37 40 42 44 44 46 47 49 50 47 47 50 49 48 47 48 49 49 49 47 44 40 37 36 36 34 34 35 36 37
32 38 40 42 44 44 47 47 48 50 48 48 53 52 49 47 46 48 48 47 45 41 39 36 35 34 33 34 36 37 38 39
37 41 42 43 45 46 48 50 50 49 50 53 53 50 47 47 45 48 46 43 40 39 35 34 34 34 35 37 39 39 40 40
41 41 42 44 46 48 49 51 52 52 52 52 50 46 45 43 46 46 41 38 37 35 33 32 33 35 36 40 40 40 40 39
40 42 44 45 49 49 51 53 54 53 52 49 49 49 43 40 42 40 36 34 34 32 31 32 34 37 40 43 41 38 37 37
Wind_Direction
243 253 261 268 285 291 293 293 301 293 294 298 302 302 304 304 306 302 306 303 306 306 306 305 304 302 301 301 299 299 297 296
239 261 277 281 291 294 291 295 299 294 294 298 301 302 303 302 303 305 305 303 304 305 305 304 303 301 301 300 299 298 297 295
275 276 281 289 291 292 291 292 294 296 295 297 299 301 300 301 302 303 304 305 305 303 301 301 302 301 300 300 299 298 296 296
283 286 288 287 291 293 294 295 297 297 298 298 301 302 301 300 301 301 301 301 303 302 301 302 302 301 300 299 298 297 296 295
289 290 290 291 293 294 296 297 298 298 299 299 301 301 300 300 302 302 303 302 303 303 302 302 301 301 300 299 298 296 295 294
296 295 293 293 295 297 298 298 300 301 300 299 301 302 303 303 304 304 305 305 303 303 303 302 301 300 299 298 297 296 294 293
293 292 293 296 299 300 301 302 303 302 301 302 304 304 304 305 306 305 305 304 303 303 303 301 300 300 299 298 298 296 295 293
295 295 298 300 303 303 302 305 306 305 303 304 305 306 306 307 306 306 306 305 305 304 304 303 302 301 299 298 298 296 296 294
299 300 300 303 306 307 307 307 308 308 307 307 307 307 307 306 306 306 306 306 306 305 306 306 304 303 301 299 298 296 295 294
301 301 304 307 309 310 310 310 310 309 309 309 309 308 308 307 305 305 306 307 307 306 306 305 304 303 302 300 298 296 295 293
301 307 309 310 313 315 314 312 312 312 312 311 309 309 309 308 308 307 308 308 308 307 306 307 305 304 303 302 299 297 296 294
306 311 315 315 316 315 313 313 313 312 311 311 310 310 310 309 309 308 308 309 309 308 308 308 307 306 305 304 302 300 297 295
311 312 313 313 315 316 314 314 312 312 312 312 311 311 311 310 309 309 309 310 310 310 310 309 308 308 307 305 303 301 297 295
313 313 315 314 315 315 314 313 313 313 313 312 311 311 311 311 310 310 311 311 311 311 311 310 310 309 309 307 306 304 301 299
316 316 316 316 316 315 315 315 315 314 313 311 312 311 310 311 310 310 311 312 312 312 312 311 311 311 309 309 308 305 302 299
315 315 316 316 317 317 317 316 316 316 313 309 312 309 308 309 309 312 312 312 313 313 313 312 312 312 310 311 310 308 305 302
315 316 317 317 318 319 319 318 318 315 313 310 312 310 306 311 310 313 312 313 314 314 313 313 313 314 312 313 312 310 307 304
316 317 318 319 320 320 319 319 318 315 313 311 313 309 306 306 310 313 312 313 315 315 314 314 315 316 315 315 313 311 309 307
317 318 319 319 319 319 319 319 318 317 315 313 311 311 305 306 313 313 312 314 316 316 317 317 317 317 316 316 315 313 312 310